Silver Bay, MN

11:08 PM CST on December 09, 2019 (GMT -0600)
Silver Bay Municipal

Weather History for KBFW - November, 2019

Change the Weather History Date:

Tuesday, November 19, 2019

  Actual Average Record
Temperature  
Mean Temperature 30 °F -  
Max Temperature 33 °F 33 °F 46 °F (2006)
Min Temperature 28 °F 17 °F -11 °F (2018)
Degree Days  
Heating Degree Days 34    
Moisture  
Dew Point 29 °F    
Average Humidity 90    
Maximum Humidity 93    
Minimum Humidity 80    
Precipitation  
Precipitation 0.00 in - - ()
Sea Level Pressure  
Sea Level Pressure 29.76 in    
Wind  
Wind Speed 0 mph (SSW)    
Max Wind Speed 4 mph    
Max Gust Speed -    
Visibility 6 miles    
Events      
Averages and records for this station are not official NWS values.
T = Trace of Precipitation, MM = Missing Value Source: NWS Daily Summary

Daily Weather History Graph

Daily Weather History Graph

Search for Another Location

Airport or City:

Astronomy

Nov. 19, 2019 Rise Set
Actual Time 7:15 AM CST 4:26 PM CST
Civil Twilight 6:41 AM CST 5:00 PM CST
Nautical Twilight 6:04 AM CST 5:37 PM CST
Astronomical Twilight 5:27 AM CST 6:13 PM CST
Moon 11:27 PM CST (11/19) 1:23 PM CST (11/19)
Length of Visible Light 10h 18m
Length of Day
9h 11m
Waning Gibbous, 51% of the Moon is Illuminated
Nov 19
Waning Gibbous
Nov 19
Last Quarter
Nov 26
New
Dec 4
First Quarter
Dec 11
Full

Hourly Weather History & Observations

Time (CST) Temp. Windchill Dew Point Humidity Pressure Visibility Wind Dir Wind Speed Gust Speed Precip Events Conditions
12:15 AM 28.4 °F - 24.8 °F 86% 29.67 in 10.0 mi Calm Calm - N/A   Overcast
12:35 AM 30.2 °F - 24.8 °F 80% 29.67 in 10.0 mi Calm Calm - N/A   Overcast
12:55 AM 28.4 °F - 24.8 °F 86% 29.67 in 10.0 mi Calm Calm - N/A   Overcast
12:56 AM 28.4 °F - 24.8 °F 86% 29.67 in 10.0 mi Calm Calm - N/A   Overcast
1:35 AM 28.4 °F - 24.8 °F 86% 29.67 in 10.0 mi Calm Calm - N/A   Overcast
1:36 AM 30.2 °F - 24.8 °F 80% 29.67 in 10.0 mi Calm Calm - N/A   Overcast
1:55 AM 28.4 °F - 26.6 °F 93% 29.67 in 10.0 mi Calm Calm - N/A   Overcast
2:15 AM 28.4 °F - 26.6 °F 93% 29.67 in 10.0 mi Calm Calm - N/A   Overcast
2:35 AM 28.4 °F - 26.6 °F 93% 29.66 in 10.0 mi Calm Calm - N/A   Overcast
2:55 AM 28.4 °F - 26.6 °F 93% 29.66 in 10.0 mi Calm Calm - N/A   Overcast
3:15 AM 28.4 °F - 24.8 °F 86% 29.66 in 10.0 mi Calm Calm - N/A   Overcast
3:35 AM 28.4 °F - 24.8 °F 86% 29.66 in 10.0 mi Calm Calm - N/A   Overcast
3:55 AM 28.4 °F - 26.6 °F 93% 29.66 in 10.0 mi Calm Calm - N/A   Overcast
4:15 AM 28.4 °F - 26.6 °F 93% 29.66 in 10.0 mi Calm Calm - N/A   Overcast
4:35 AM 28.4 °F - 26.6 °F 93% 29.67 in 10.0 mi Calm Calm - N/A   Overcast
4:55 AM 30.2 °F - 26.6 °F 86% 29.67 in 10.0 mi Calm Calm - N/A   Overcast
5:15 AM 30.2 °F - 26.6 °F 86% 29.67 in 10.0 mi Calm Calm - N/A   Overcast
5:16 AM 30.2 °F - 26.6 °F 86% 29.68 in 10.0 mi Calm Calm - N/A   Overcast
5:35 AM 30.2 °F - 28.4 °F 93% 29.68 in 10.0 mi Calm Calm - N/A   Overcast
5:55 AM 28.4 °F - 26.6 °F 93% 29.68 in 10.0 mi Calm Calm - N/A   Overcast
6:15 AM 28.4 °F - 26.6 °F 93% 29.68 in 10.0 mi Calm Calm - N/A   Overcast
6:16 AM 28.4 °F - 26.6 °F 93% 29.69 in 10.0 mi Calm Calm - N/A   Overcast
6:35 AM 28.4 °F - 26.6 °F 93% 29.69 in 10.0 mi Calm Calm - N/A   Overcast
6:55 AM 28.4 °F - 26.6 °F 93% 29.69 in 10.0 mi Calm Calm - N/A   Overcast
7:15 AM 28.4 °F - 26.6 °F 93% 29.70 in 10.0 mi Calm Calm - N/A   Overcast
7:35 AM 28.4 °F - 26.6 °F 93% 29.71 in 10.0 mi Calm Calm - N/A   Overcast
7:55 AM 30.2 °F - 28.4 °F 93% 29.71 in 7.0 mi Calm Calm - N/A   Overcast
8:15 AM 30.2 °F - 28.4 °F 93% 29.72 in 7.0 mi Calm Calm - N/A   Overcast
8:35 AM 30.2 °F - 28.4 °F 93% 29.72 in 4.0 mi Calm Calm - N/A   Overcast
8:55 AM 30.2 °F - 28.4 °F 93% 29.72 in 4.0 mi Calm Calm - N/A   Overcast
9:15 AM 30.2 °F - 28.4 °F 93% 29.72 in 4.0 mi Calm Calm - N/A   Overcast
9:16 AM 30.2 °F - 28.4 °F 93% 29.72 in 4.0 mi Calm Calm - N/A   Overcast
9:35 AM 30.2 °F - 28.4 °F 93% 29.73 in 4.0 mi Calm Calm - N/A   Overcast
9:55 AM 30.2 °F - 28.4 °F 93% 29.73 in 4.0 mi Calm Calm - N/A   Overcast
10:15 AM 32.0 °F - 30.2 °F 93% 29.73 in 4.0 mi Calm Calm - N/A   Overcast
10:16 AM 32.0 °F - 30.2 °F 93% 29.73 in 4.0 mi Calm Calm - N/A   Overcast
10:55 AM 32.0 °F 28.7 °F 30.2 °F 93% 29.74 in 4.0 mi South 3.5 mph - N/A   Overcast
11:15 AM 32.0 °F - 30.2 °F 93% 29.75 in 5.0 mi Calm Calm - N/A   Overcast
11:35 AM 33.8 °F 30.8 °F 30.2 °F 87% 29.75 in 5.0 mi SSW 3.5 mph - N/A   Overcast
11:55 AM 33.8 °F - 30.2 °F 87% 29.75 in 5.0 mi Calm Calm - N/A   Overcast
12:15 PM 33.8 °F - 30.2 °F 87% 29.76 in 5.0 mi Calm Calm - N/A   Overcast
12:35 PM 33.8 °F - 30.2 °F 87% 29.75 in 5.0 mi Calm Calm - N/A   Overcast
12:55 PM 33.8 °F - 30.2 °F 87% 29.75 in 4.0 mi Calm Calm - N/A   Overcast
1:15 PM 33.8 °F 30.8 °F 30.2 °F 87% 29.76 in 4.0 mi SSW 3.5 mph - N/A   Overcast
1:16 PM 33.8 °F 30.8 °F 30.2 °F 87% 29.76 in 4.0 mi SSW 3.5 mph - N/A   Overcast
1:35 PM 33.8 °F 30.8 °F 30.2 °F 87% 29.76 in 4.0 mi South 3.5 mph - N/A   Overcast
1:55 PM 33.8 °F - 30.2 °F 87% 29.77 in 5.0 mi Calm Calm - N/A   Overcast
1:56 PM 33.8 °F - 30.2 °F 87% 29.77 in 5.0 mi Calm Calm - N/A   Overcast
2:15 PM 33.8 °F - 30.2 °F 87% 29.77 in 4.0 mi Calm Calm - N/A   Overcast
2:35 PM 33.8 °F - 30.2 °F 87% 29.78 in 5.0 mi Calm Calm - N/A   Overcast
2:55 PM 33.8 °F - 30.2 °F 87% 29.78 in 4.0 mi Calm Calm - N/A   Overcast
2:56 PM 33.8 °F - 30.2 °F 87% 29.79 in 4.0 mi Calm Calm - N/A   Overcast
3:15 PM 33.8 °F - 30.2 °F 87% 29.79 in 4.0 mi Calm Calm - N/A   Overcast
3:35 PM 33.8 °F - 30.2 °F 87% 29.80 in 3.0 mi Calm Calm - N/A   Overcast
3:55 PM 33.8 °F - 30.2 °F 87% 29.81 in 4.0 mi Calm Calm - N/A   Overcast
3:56 PM 33.8 °F - 30.2 °F 87% 29.81 in 4.0 mi Calm Calm - N/A   Overcast
4:15 PM 33.8 °F - 30.2 °F 87% 29.80 in 4.0 mi Calm Calm - N/A   Overcast
4:35 PM 33.8 °F - 30.2 °F 87% 29.81 in 4.0 mi Calm Calm - N/A   Overcast
4:36 PM 33.8 °F - 30.2 °F 87% 29.81 in 4.0 mi Calm Calm - N/A   Overcast
4:55 PM 33.8 °F - 30.2 °F 87% 29.81 in 4.0 mi Calm Calm - N/A   Overcast
5:15 PM 32.0 °F - 30.2 °F 93% 29.82 in 2.5 mi Calm Calm - N/A   Overcast
5:35 PM 32.0 °F - 30.2 °F 93% 29.83 in 2.0 mi Calm Calm - N/A   Overcast
5:55 PM 32.0 °F - 30.2 °F 93% 29.83 in 1.5 mi Calm Calm - N/A   Overcast
6:15 PM 32.0 °F - 30.2 °F 93% 29.83 in 2.0 mi Calm Calm - N/A   Overcast
6:35 PM 32.0 °F - 30.2 °F 93% 29.83 in 2.0 mi Calm Calm - N/A   Overcast
6:36 PM 32.0 °F - 30.2 °F 93% 29.83 in 2.5 mi Calm Calm - N/A   Overcast
6:56 PM 32.0 °F - 30.2 °F 93% 29.83 in 2.0 mi Calm Calm - N/A   Overcast
7:15 PM 32.0 °F - 30.2 °F 93% 29.84 in 2.5 mi Calm Calm - N/A   Overcast
7:35 PM 32.0 °F - 30.2 °F 93% 29.84 in 2.5 mi Calm Calm - N/A   Overcast
8:15 PM 32.0 °F - 30.2 °F 93% 29.86 in 2.5 mi Calm Calm - N/A   Mostly Cloudy
8:35 PM 32.0 °F - 30.2 °F 93% 29.86 in 3.0 mi Calm Calm - N/A   Mostly Cloudy
8:36 PM 32.0 °F - 30.2 °F 93% 29.86 in 3.0 mi Calm Calm - N/A   Mostly Cloudy
8:55 PM 32.0 °F - 30.2 °F 93% 29.87 in 3.0 mi Calm Calm - N/A   Mostly Cloudy
9:15 PM 32.0 °F - 30.2 °F 93% 29.88 in 3.0 mi Calm Calm - N/A   Mostly Cloudy
9:16 PM 32.0 °F - 30.2 °F 93% 29.88 in 3.0 mi Calm Calm - N/A   Mostly Cloudy
9:35 PM 32.0 °F - 30.2 °F 93% 29.88 in 3.0 mi Calm Calm - N/A   Overcast
9:55 PM 32.0 °F - 30.2 °F 93% 29.88 in 3.0 mi Calm Calm - N/A   Overcast
10:15 PM 32.0 °F - 30.2 °F 93% 29.88 in 3.0 mi Calm Calm - N/A   Overcast
10:35 PM 32.0 °F - 30.2 °F 93% 29.89 in 4.0 mi Calm Calm - N/A   Overcast
10:55 PM 33.8 °F - 30.2 °F 87% 29.90 in 7.0 mi Calm Calm - N/A   Overcast
10:56 PM 33.8 °F - 30.2 °F 87% 29.90 in 7.0 mi Calm Calm - N/A   Overcast
11:15 PM 33.8 °F 30.8 °F 32.0 °F 93% 29.90 in 10.0 mi West 3.5 mph - N/A   Mostly Cloudy
11:16 PM 33.8 °F - 32.0 °F 93% 29.90 in 10.0 mi Calm Calm - N/A   Mostly Cloudy
11:35 PM 33.8 °F - 32.0 °F 93% 29.90 in 10.0 mi Calm Calm - N/A   Mostly Cloudy
11:55 PM 33.8 °F - 32.0 °F 93% 29.90 in 10.0 mi Calm Calm - N/A   Overcast